Vertical_Velocity
-2 -3 -2 -0 -2 -1 1 -2 -2 -0 2 -2 -2 -1 -3 0 -1 -4 -2 -1 -1 -1 -3 1 5 4 -3 -11 1 9 7 4 -4 -7 4 3 -0 4 0 -1 -2 -1 7 -4 -6 -1 3
-1 -3 -2 -3 1 -3 -2 -3 -2 -1 -3 -4 -1 -2 -0 -1 -2 -2 -2 -1 -3 1 -4 -2 0 2 -3 -18 19 -2 4 4 -6 1 8 2 10 3 -5 0 -0 -0 4 -4 -4 0 3
-3 0 -3 -4 1 -5 -1 -3 -2 -1 -4 -4 -1 -0 -1 1 -4 -3 -1 -1 -4 -5 -5 6 4 3 -7 11 21 -8 7 3 -4 4 3 13 -0 -1 4 3 0 1 -4 -3 4 -4 7
-1 -1 -2 -2 1 -3 0 -4 1 -1 -2 -3 -3 1 -0 -1 -5 -3 -2 -6 -4 -2 -2 4 -2 -4 -10 17 4 -11 2 5 0 1 6 6 4 -1 0 -1 -2 -2 -5 -2 1 -4 -4
0 -2 -0 -2 -1 -0 -2 -1 1 -1 -2 -2 -3 -2 -2 -2 -3 -3 1 -2 -2 -4 -4 2 -2 -1 2 16 6 -5 3 6 5 4 12 6 -2 4 -1 -2 -1 -0 -0 6 -10 -1 -2
1 -2 -0 -3 -0 1 -2 -0 -1 -2 -2 -1 -2 -2 -2 -0 0 -1 -0 0 -1 -2 -2 1 -2 3 1 8 3 -6 6 7 3 3 6 -3 2 -2 -4 -8 -5 -2 -2 11 -0 -2 -0
1 -2 1 -3 2 0 -1 0 -3 -2 -1 -3 -3 -0 -2 -1 2 -2 2 -1 -1 -5 -2 -1 6 -4 16 10 4 -6 4 7 3 -3 -11 2 -2 -9 9 7 -3 -2 2 -5 -0 -9 6
1 -0 -1 -2 2 0 -0 1 -1 -2 1 -3 -5 -1 1 6 4 1 -0 2 1 4 -0 -3 -1 1 0 5 4 -1 -4 -3 -9 8 8 -3 -5 9 4 -3 1 -0 -2 2 -3 -3 2
-1 2 -4 -0 1 2 -1 1 1 -3 2 -2 -4 -2 4 -2 3 6 -2 -1 8 9 0 1 1 -0 -2 -1 4 -1 8 4 8 -3 -8 5 5 -4 -0 1 -2 -2 0 2 2 -2 -0
-3 0 0 -1 0 1 -1 1 3 -3 2 -1 0 -4 5 7 1 3 3 3 9 -0 -2 0 3 2 -8 3 -6 2 9 14 -2 5 8 6 8 -2 3 2 -1 -2 4 -1 1 -1 -2
0 -3 1 -2 0 1 -1 1 2 -1 2 0 -1 -1 3 10 2 1 7 2 2 9 11 -4 2 -1 1 1 -1 -6 5 -2 0 8 -10 -1 -6 4 -2 13 4 9 3 -1 -4 -2 -3
2 -4 -2 -0 1 1 -1 0 2 1 0 2 0 -2 1 6 13 8 3 6 5 7 -2 -2 2 1 0 -3 4 1 4 1 13 7 8 5 1 15 6 3 -2 2 2 -2 -2 -1 -7
1 1 -4 3 -1 2 -0 0 1 1 -0 3 -1 -2 0 2 9 16 12 4 1 7 16 -0 7 -0 -0 4 -8 -1 -2 -12 -23 -28 -20 -5 -5 7 3 -8 -6 7 4 -5 -6 -9 1
2 2 -4 1 -1 4 0 1 -1 2 -1 3 -1 0 0 -0 1 16 10 5 3 12 10 2 0 0 0 -2 -1 2 -2 -6 -5 1 30 -1 2 -1 -2 0 8 -0 -4 2 4 -2 -3
1 2 -2 -1 1 3 0 1 -1 1 -1 2 -0 2 -1 0 -1 13 13 5 2 1 5 3 -6 1 -1 8 4 -4 5 5 4 -1 -9 -6 -13 -4 2 3 -0 -4 -14 3 -2 -4 -2
1 4 -1 -1 5 2 -1 2 -2 1 -2 2 -1 2 0 -0 -2 2 21 3 10 0 3 1 3 -3 -2 1 0 -2 -5 1 3 2 0 4 8 -0 1 2 -5 0 7 -5 -1 -3 -4
-1 3 2 -2 4 3 -1 3 -2 2 -2 1 -0 2 -1 -0 -2 6 24 12 -0 -0 -1 5 -3 -1 3 7 1 0 0 -1 -1 3 -1 -0 5 4 -0 -8 1 -3 -7 -6 -0 -5 -3
-1 1 4 -0 1 3 -0 1 -1 -0 -1 0 1 3 -1 -1 -3 4 19 12 10 4 -0 5 -5 -10 8 4 -3 -1 -4 7 -1 3 -2 -1 2 -2 8 2 2 1 -4 -6 -9 1 -1
1 -0 5 0 -1 3 0 -0 1 -3 2 -1 2 1 -1 -2 2 3 11 7 4 1 -1 2 -2 -3 3 -8 -2 -5 3 6 1 1 -3 1 -3 -3 -6 -4 -2 -5 2 4 2 -0 -1
-2 -1 4 3 -3 4 0 -1 2 -3 4 -2 1 2 -2 -2 -0 4 1 11 11 11 4 -3 -1 -5 -7 -5 -2 -1 17 -0 -2 -2 -1 -2 3 7 12 30 12 -1 3 3 -0 -3 9
2 -0 0 5 0 4 1 -1 1 -2 1 -3 -0 4 -3 6 -2 4 1 1 3 14 0 1 -1 -7 -0 -5 -3 -2 -5 -2 -0 -2 -0 -1 0 2 2 -0 -1 -1 3 0 -3 8 -9
3 1 1 4 -0 2 1 1 -1 0 -1 -2 -2 4 -2 2 -1 1 -3 11 6 4 5 -1 3 1 -1 0 4 5 2 1 4 -1 -3 5 -1 1 3 3 1 -2 -2 -0 -1 1 0
-3 2 -1 4 0 2 1 1 -0 -0 -2 -1 -2 6 0 1 2 -4 1 1 8 2 1 2 0 2 1 1 5 0 -1 0 5 2 3 3 5 1 -1 -0 -0 -5 4 -0 -1 -1 -1
1 4 1 4 1 -1 2 1 0 0 -1 -0 -1 5 1 -3 2 0 -3 2 1 1 -2 3 5 -1 3 2 0 -1 -3 -1 1 -2 1 2 3 1 0 -1 -5 3 -1 -1 -2 -0 -1
2 2 -0 4 1 1 2 0 0 -0 -1 1 -0 5 2 -3 0 2 2 -3 1 -0 -2 -0 4 5 1 -3 4 1 -1 0 -2 -1 0 1 1 1 -2 2 2 -2 4 4 -2 3 1
1 4 -0 2 2 2 1 -1 1 -1 -1 1 -1 6 2 0 0 -1 -0 2 -0 -2 -0 2 -0 -1 0 1 -2 -3 -2 6 -2 -1 -2 -3 -2 -3 -3 -3 -4 5 3 3 2 -3 0
-1 1 1 1 2 1 1 -1 1 -0 -1 1 -0 4 2 0 -0 -0 -0 1 2 2 -1 1 2 1 2 4 1 2 8 -1 -3 -0 2 1 1 -3 1 -2 -4 2 4 0 -4 5 -1
-1 -2 -1 1 2 -0 2 -1 2 -0 -1 1 1 1 4 0 -0 1 -1 -1 1 -0 1 -1 2 5 2 3 1 -0 -2 -2 -2 -0 -0 2 -0 2 3 3 -0 2 -1 4 2 2 3
-1 -1 0 -0 3 0 1 -2 2 1 -1 -1 2 2 3 -0 -0 -1 1 0 -0 1 1 2 -0 1 2 3 6 4 2 0 6 2 3 0 1 3 -0 4 4 4 2 2 1 1 -0
Height
5746 5742 5736 5730 5725 5720 5714 5708 5700 5695 5692 5688 5683 5679 5672 5666 5659 5651 5644 5640 5635 5630 5627 5625 5625 5625 5626 5637 5664 5676 5691 5707 5716 5724 5736 5744 5752 5762 5773 5780 5782 5789 5794 5796 5798 5802 5805
5740 5736 5731 5725 5718 5713 5707 5701 5694 5689 5685 5681 5676 5670 5663 5657 5649 5640 5633 5627 5622 5618 5615 5610 5609 5611 5614 5629 5656 5657 5675 5692 5704 5717 5731 5738 5749 5760 5765 5770 5776 5783 5785 5790 5795 5797 5801
5735 5730 5726 5720 5713 5707 5701 5695 5689 5684 5679 5674 5669 5661 5654 5648 5639 5630 5623 5616 5611 5607 5604 5599 5599 5598 5608 5633 5632 5641 5664 5681 5694 5711 5724 5736 5745 5751 5760 5765 5772 5775 5780 5785 5791 5794 5795
5730 5725 5720 5714 5708 5702 5695 5690 5684 5678 5673 5668 5661 5654 5647 5639 5631 5621 5613 5607 5601 5597 5592 5589 5588 5591 5604 5610 5616 5632 5652 5671 5686 5703 5717 5728 5735 5744 5753 5759 5765 5769 5775 5782 5787 5787 5790
5724 5720 5714 5709 5704 5696 5690 5684 5678 5673 5667 5662 5655 5648 5641 5632 5623 5614 5606 5600 5594 5590 5585 5580 5581 5586 5592 5601 5614 5628 5644 5662 5676 5694 5709 5718 5724 5733 5743 5752 5759 5762 5773 5779 5780 5782 5787
5717 5714 5709 5704 5699 5691 5684 5679 5672 5667 5660 5656 5650 5642 5634 5624 5616 5607 5600 5594 5589 5584 5579 5574 5574 5579 5589 5599 5604 5620 5635 5651 5668 5685 5698 5708 5716 5726 5735 5744 5749 5764 5771 5776 5776 5780 5782
5711 5708 5704 5699 5693 5686 5679 5674 5667 5662 5655 5651 5645 5636 5627 5619 5611 5602 5594 5588 5584 5579 5575 5572 5573 5577 5583 5591 5600 5615 5630 5646 5662 5678 5691 5702 5708 5717 5735 5748 5755 5759 5763 5769 5770 5772 5779
5705 5702 5698 5694 5687 5682 5675 5670 5663 5657 5651 5646 5640 5632 5623 5615 5607 5598 5590 5585 5580 5577 5573 5569 5569 5573 5576 5582 5593 5609 5624 5642 5660 5676 5684 5696 5703 5723 5734 5741 5747 5753 5760 5766 5768 5770 5775
5698 5695 5692 5688 5682 5677 5671 5665 5659 5653 5647 5642 5636 5629 5621 5611 5602 5594 5587 5581 5575 5572 5571 5569 5568 5571 5575 5582 5593 5608 5625 5639 5655 5670 5683 5694 5707 5717 5726 5735 5743 5751 5758 5762 5765 5766 5772
5690 5689 5686 5682 5677 5671 5667 5661 5656 5649 5643 5638 5632 5626 5619 5609 5600 5593 5585 5579 5575 5571 5568 5569 5569 5571 5577 5581 5592 5607 5622 5639 5654 5670 5683 5692 5704 5715 5723 5733 5740 5748 5754 5755 5760 5762 5768
5681 5681 5679 5676 5672 5666 5662 5658 5652 5646 5640 5634 5628 5623 5617 5608 5598 5591 5585 5578 5574 5569 5566 5566 5565 5569 5575 5585 5597 5608 5623 5640 5656 5670 5676 5689 5702 5710 5718 5731 5740 5749 5747 5752 5755 5759 5763
5672 5673 5672 5669 5666 5661 5657 5653 5649 5643 5637 5631 5626 5620 5615 5608 5600 5592 5585 5578 5573 5570 5564 5560 5560 5566 5573 5583 5596 5609 5624 5639 5653 5664 5676 5687 5699 5706 5716 5729 5737 5740 5742 5747 5750 5753 5759
5663 5664 5664 5662 5660 5657 5652 5648 5645 5640 5634 5629 5625 5618 5614 5608 5601 5592 5585 5579 5574 5567 5564 5561 5559 5565 5575 5587 5598 5612 5626 5638 5649 5658 5668 5683 5695 5704 5716 5722 5728 5732 5738 5743 5748 5752 5758
5653 5655 5656 5654 5654 5651 5648 5644 5641 5637 5632 5627 5623 5618 5613 5607 5600 5595 5588 5583 5578 5574 5569 5563 5563 5570 5579 5589 5601 5613 5625 5639 5651 5663 5675 5678 5686 5698 5707 5718 5726 5730 5737 5742 5744 5747 5752
5643 5646 5647 5647 5647 5646 5643 5640 5637 5634 5630 5625 5622 5618 5612 5607 5601 5597 5591 5586 5583 5580 5575 5571 5571 5577 5585 5599 5609 5618 5631 5642 5651 5660 5669 5678 5691 5701 5709 5717 5722 5725 5731 5737 5739 5742 5747
5633 5637 5639 5639 5639 5640 5638 5635 5633 5630 5627 5623 5620 5617 5612 5607 5602 5599 5596 5590 5590 5588 5584 5581 5584 5585 5590 5598 5612 5619 5629 5642 5651 5661 5670 5680 5691 5698 5705 5712 5715 5721 5729 5731 5734 5739 5742
5622 5627 5630 5631 5631 5634 5633 5630 5628 5626 5624 5620 5618 5616 5613 5608 5604 5602 5597 5594 5593 5593 5593 5594 5595 5599 5602 5606 5616 5625 5634 5643 5652 5659 5667 5678 5687 5695 5702 5705 5711 5718 5723 5728 5731 5734 5737
5612 5617 5621 5623 5624 5627 5627 5625 5624 5623 5620 5618 5616 5616 5613 5609 5607 5604 5600 5597 5597 5598 5599 5604 5609 5611 5612 5614 5618 5628 5637 5648 5654 5662 5669 5677 5684 5690 5698 5703 5708 5713 5718 5723 5725 5731 5733
5602 5608 5612 5615 5617 5620 5621 5620 5620 5619 5617 5615 5614 5614 5613 5610 5609 5607 5604 5601 5600 5601 5603 5605 5610 5613 5619 5623 5628 5633 5640 5647 5655 5661 5667 5674 5680 5685 5691 5698 5703 5709 5714 5718 5722 5725 5729
5592 5598 5603 5606 5609 5612 5615 5614 5614 5615 5614 5613 5612 5613 5613 5611 5610 5609 5606 5605 5602 5603 5604 5606 5609 5612 5615 5623 5630 5637 5642 5648 5655 5661 5666 5671 5677 5683 5690 5699 5704 5707 5713 5717 5718 5720 5724
5582 5589 5594 5598 5601 5605 5608 5608 5609 5611 5610 5610 5609 5610 5612 5610 5611 5610 5608 5607 5605 5605 5605 5607 5611 5614 5620 5627 5631 5636 5643 5650 5655 5658 5664 5670 5674 5680 5686 5692 5697 5703 5708 5709 5712 5716 5716
5570 5578 5585 5589 5593 5597 5601 5602 5603 5606 5606 5606 5607 5608 5611 5610 5610 5611 5609 5609 5607 5607 5608 5609 5613 5617 5621 5627 5635 5641 5645 5650 5656 5660 5664 5669 5674 5679 5684 5690 5694 5698 5701 5704 5707 5710 5712
5559 5567 5575 5581 5585 5589 5594 5595 5598 5600 5602 5602 5604 5604 5608 5609 5609 5611 5611 5610 5610 5610 5610 5612 5614 5618 5623 5627 5632 5636 5643 5650 5655 5660 5665 5669 5673 5678 5683 5686 5689 5692 5698 5700 5703 5705 5707
5548 5558 5566 5572 5577 5581 5586 5589 5591 5593 5597 5598 5600 5602 5605 5608 5608 5610 5611 5612 5612 5613 5613 5616 5617 5621 5625 5628 5632 5636 5642 5647 5653 5657 5662 5666 5670 5673 5678 5681 5683 5691 5693 5696 5698 5701 5703
5539 5550 5557 5563 5569 5573 5579 5582 5585 5587 5592 5593 5596 5599 5602 5605 5607 5609 5611 5612 5613 5615 5616 5619 5621 5624 5626 5629 5634 5637 5642 5647 5651 5654 5659 5664 5668 5672 5676 5679 5684 5688 5691 5693 5694 5697 5697
5528 5540 5549 5555 5561 5566 5572 5576 5578 5582 5586 5589 5592 5595 5600 5603 5605 5607 5609 5611 5614 5615 5618 5620 5623 5625 5628 5631 5634 5637 5641 5647 5650 5653 5657 5663 5667 5671 5674 5676 5679 5684 5687 5688 5689 5689 5690
5518 5529 5539 5546 5553 5559 5565 5569 5572 5576 5580 5584 5588 5592 5596 5600 5603 5606 5608 5610 5613 5616 5617 5621 5624 5627 5630 5633 5636 5640 5644 5647 5650 5654 5658 5662 5665 5668 5670 5672 5674 5678 5680 5679 5681 5688 5685
5509 5520 5530 5538 5544 5552 5558 5562 5566 5570 5575 5579 5583 5588 5593 5597 5600 5603 5606 5608 5611 5614 5618 5622 5626 5628 5631 5635 5637 5640 5644 5647 5650 5653 5656 5659 5660 5663 5665 5666 5669 5673 5674 5676 5677 5677 5678
5500 5511 5521 5529 5536 5544 5551 5556 5560 5564 5570 5574 5578 5583 5588 5592 5597 5600 5603 5606 5610 5614 5618 5621 5625 5627 5630 5632 5637 5640 5643 5646 5649 5651 5654 5656 5658 5661 5663 5664 5665 5667 5668 5669 5670 5671 5672